SCP
0 0 0 0 0 0 0 0 0 0 0 0 0 0 0 0 0 0 0 0 0 0
0 0 0 0 0 0 0 0 0 0 0 0 0 0 0 0 0 0 0 -0 0 0
0 0 0 0 0 0 0 0 0 0 0 0 0 0 0 0 0 0 0 0 0 0
0 0 0 0 0 0 0 0 0 0 0 0 0 0 0 0 0 0 0 0 0 0
0 0 0 0 0 0 0 0 0 0 0 0 0 0 0 0 0 0 0 0 0 0
0 0 0 0 0 0 0 0 0 0 0 0 0 0 0 0 0 0 0 0 0 0
0 0 0 1 1 0 1 0 0 0 0 0 0 0 0 0 0 0 0 0 0 0
0 0 0 0 0 0 0 1 1 1 0 0 0 0 0 0 0 0 0 0 0 1
0 0 0 0 0 0 0 0 1 1 1 1 1 0 0 0 0 0 1 1 1 1
0 0 0 0 1 0 0 0 1 1 1 1 1 0 0 0 1 1 1 1 1 0
0 0 0 0 1 0 0 0 1 1 1 1 2 0 0 0 1 1 1 1 0 0
0 0 0 0 0 1 0 0 0 0 1 1 1 0 0 0 1 0 0 0 0 0
0 0 0 0 0 0 1 1 1 1 1 1 0 0 0 0 0 0 0 0 0 0
0 0 0 0 0 0 0 0 0 0 0 0 0 0 0 0 0 0 0 0 0 0
Wind_Speed_500mb
48 44 44 43 42 40 37 37 32 34 31 30 30 25 25 24 23 25 25 24 22 21
52 50 47 43 42 41 41 39 33 33 34 33 32 30 28 31 27 26 26 26 28 26
56 55 52 48 46 44 39 41 40 37 36 37 36 33 31 27 29 30 29 29 31 30
61 60 61 57 50 51 45 45 43 45 42 41 39 36 34 33 32 35 33 34 34 33
63 63 64 68 59 52 52 48 49 45 46 44 46 44 42 39 37 35 35 36 36 37
56 58 67 59 66 59 55 54 53 55 52 51 49 44 43 42 41 40 40 39 38 36
58 64 68 69 56 54 59 59 60 61 58 59 55 53 49 47 44 43 44 41 37 33
74 74 72 80 77 63 60 59 59 65 65 61 57 53 53 48 47 43 40 40 34 30
62 72 72 75 80 67 66 64 60 59 66 67 61 58 52 49 47 41 38 35 29 25
53 64 70 71 76 83 76 68 59 64 62 67 66 60 53 51 48 43 37 31 28 28
56 67 72 74 73 75 76 79 78 73 65 63 66 65 57 53 50 44 41 37 32 30
47 63 72 76 77 86 90 88 84 67 69 66 71 66 61 56 51 48 47 41 35 34
54 63 69 70 74 73 69 71 77 70 71 67 65 65 61 56 54 51 48 39 34 28
58 63 69 73 69 67 60 60 69 67 67 62 60 59 58 55 54 51 43 30 21 15
Wind_Direction_500mb
234 235 230 236 244 244 246 245 251 235 228 232 238 245 255 260 253 256 265 269 275 282
237 234 234 240 244 250 245 244 245 236 234 236 241 244 254 254 257 257 264 271 274 276
244 243 241 242 244 242 248 244 242 239 239 242 248 243 246 250 250 257 265 270 273 274
252 251 248 246 245 243 248 247 246 244 244 246 246 244 247 250 259 261 265 272 278 277
248 252 254 249 246 245 246 245 247 247 247 250 251 250 250 255 261 261 266 275 278 274
256 252 246 250 247 246 245 247 247 246 248 251 250 250 252 259 260 259 268 276 273 276
258 261 252 246 251 249 249 246 246 246 250 252 253 255 256 255 259 265 270 273 273 272
260 261 255 250 249 264 246 245 245 245 246 252 253 253 255 254 260 266 270 273 272 265
258 257 259 266 253 264 259 247 240 246 245 248 250 252 253 255 263 269 270 266 264 257
252 256 257 260 255 262 260 253 248 248 246 246 244 247 246 253 259 268 268 260 254 251
265 261 259 256 255 254 251 254 261 257 243 247 244 240 241 247 257 261 256 251 248 250
272 264 262 258 252 249 253 256 252 251 248 244 247 239 238 247 246 250 248 247 247 252
278 272 261 257 252 246 243 246 243 250 246 239 243 238 238 241 237 240 239 241 251 251
290 278 260 257 246 243 246 245 246 238 236 234 231 230 229 231 231 237 238 242 232 246
Wind_Speed_850mb
48 44 44 43 42 40 37 37 32 34 31 30 30 25 25 24 23 25 25 24 22 21
52 50 47 43 42 41 41 39 33 33 34 33 32 30 28 31 27 26 26 26 28 26
56 55 52 48 46 44 39 41 40 37 36 37 36 33 31 27 29 30 29 29 31 30
61 60 61 57 50 51 45 45 43 45 42 41 39 36 34 33 32 35 33 34 34 33
63 63 64 68 59 52 52 48 49 45 46 44 46 44 42 39 37 35 35 36 36 37
56 58 67 59 66 59 55 54 53 55 52 51 49 44 43 42 41 40 40 39 38 36
58 64 68 69 56 54 59 59 60 61 58 59 55 53 49 47 44 43 44 41 37 33
74 74 72 80 77 63 60 59 59 65 65 61 57 53 53 48 47 43 40 40 34 30
62 72 72 75 80 67 66 64 60 59 66 67 61 58 52 49 47 41 38 35 29 25
53 64 70 71 76 83 76 68 59 64 62 67 66 60 53 51 48 43 37 31 28 28
56 67 72 74 73 75 76 79 78 73 65 63 66 65 57 53 50 44 41 37 32 30
47 63 72 76 77 86 90 88 84 67 69 66 71 66 61 56 51 48 47 41 35 34
54 63 69 70 74 73 69 71 77 70 71 67 65 65 61 56 54 51 48 39 34 28
58 63 69 73 69 67 60 60 69 67 67 62 60 59 58 55 54 51 43 30 21 15
Wind_Direction_850mb
234 235 230 236 244 244 246 245 251 235 228 232 238 245 255 260 253 256 265 269 275 282
237 234 234 240 244 250 245 244 245 236 234 236 241 244 254 254 257 257 264 271 274 276
244 243 241 242 244 242 248 244 242 239 239 242 248 243 246 250 250 257 265 270 273 274
252 251 248 246 245 243 248 247 246 244 244 246 246 244 247 250 259 261 265 272 278 277
248 252 254 249 246 245 246 245 247 247 247 250 251 250 250 255 261 261 266 275 278 274
256 252 246 250 247 246 245 247 247 246 248 251 250 250 252 259 260 259 268 276 273 276
258 261 252 246 251 249 249 246 246 246 250 252 253 255 256 255 259 265 270 273 273 272
260 261 255 250 249 264 246 245 245 245 246 252 253 253 255 254 260 266 270 273 272 265
258 257 259 266 253 264 259 247 240 246 245 248 250 252 253 255 263 269 270 266 264 257
252 256 257 260 255 262 260 253 248 248 246 246 244 247 246 253 259 268 268 260 254 251
265 261 259 256 255 254 251 254 261 257 243 247 244 240 241 247 257 261 256 251 248 250
272 264 262 258 252 249 253 256 252 251 248 244 247 239 238 247 246 250 248 247 247 252
278 272 261 257 252 246 243 246 243 250 246 239 243 238 238 241 237 240 239 241 251 251
290 278 260 257 246 243 246 245 246 238 236 234 231 230 229 231 231 237 238 242 232 246